www.pogodaiklimat.ru

Погода и климат >> Архив погоды >> Аргентина >> Сан-Мартин


ПОГОДА в Сан-Мартине

  • Прогноз погоды в Сан-Мартине
  • Монитор погоды в Сан-Мартине

АРХИВ ПОГОДЫ в Сан-Мартине

Время (UTC), дата Ветер
(напр.,м/с)
 
Видим.   Явления Облачность Т
(С)
Тd
(С)
f
(%)
Тe
(С)
Тes
(С)
Комфортность P
(гПа)
Po
(гПа)
Тmin
(С)
Tmax
(С)
R
(мм)
R24
(мм)
S
(см)
00 16.09 Ю 7 15 км ясно +17.8 +2.9 37 +17 +17 1010.1 935.7 +13.4 +25.6
03 16.09 Ю 4 15 км 8/8 1200 м
[Sc]
+13.3 +0.1 40 +12 +12 1015.8 941.3
06 16.09 Ю 7 15 км 9/9 1200 м
[Sc]
+9.7 -0.8 48 +6 +6 1020.9 946.0
09 16.09 штиль 0 15 км 9/5 1200 м
[Sc Ac As]
+8.8 -0.9 51 +9 +9 1022.9 947.8
12 16.09 Ю 1 15 км 9/9 1050 м
[Sc]
+8.4 +0.7 58 +8 +8 1028.4 952.0 +7.6 +17.8
15 16.09 ЮЗ 1 15 км 3/0
[Ci fib]
+12.3 -4.6 30 +13 +27 опасность
простуды
1027.2 950.8
18 16.09 СЗ 1 15 км ясно +15.5 -3.3 27 +16 +32 опасность
простуды
1023.9 947.7
21 16.09 С 1 15 км ясно +16.5 -2.9 26 +17 +20 1022.4 946.2
00 17.09 штиль 0 15 км ясно +11.0 -1.9 41 +11 +11 1023.4 946.5 +8.4 +17.0
03 17.09 штиль 0 15 км ясно +8.9 -2.8 44 +9 +9 1023.5 946.8
06 17.09 штиль 0 15 км ясно +5.2 -1.6 61 +5 +5 1021.0 944.4
09 17.09 ЮЗ 1 15 км ясно +5.4 -2.4 57 +5 +5 1018.3 942.1
12 17.09 ЮЗ 1 15 км ясно +9.0 -1.6 47 +9 +11 1017.6 941.2 +4.1 +11.0
15 17.09 ЮЗ 1 15 км ясно +20.8 -8.4 13 +21 +36 комфорт 1014.1 939.2
18 17.09 В 1 15 км ясно +23.4 -8.7 11 +21 +36 комфорт 1011.0 936.2
21 17.09 ЮВ 1 15 км ясно +23.8 -7.4 12 +22 +25 комфорт 1009.4 934.8
00 18.09 штиль 0 15 км ясно +15.4 -3.5 27 +15 +15 1012.4 936.9 +9.0 +25.1
03 18.09 штиль 0 15 км ясно +12.1 +0.2 44 +12 +12 1012.9 938.5
06 18.09 Ю 1 15 км ясно +11.0 -4.2 34 +11 +11 1013.5 939.2
09 18.09 ЮЗ 3 15 км ясно +10.4 -3.6 37 +9 +9 1012.2 938.0
12 18.09 ЮЗ 1 15 км ясно +11.7 -2.2 38 +12 +15 1012.8 937.7 +8.6 +15.4
15 18.09 Ю 1 15 км ясно +20.2 -0.9 24 +21 +37 комфорт 1009.1 934.8
18 18.09 СЗ 4 15 км ясно +25.5 -3.0 15 +23 +32 комфорт 1005.8 932.4
21 18.09 С 4 15 км ясно +25.5 -4.4 14 +23 +25 комфорт 1003.7 930.2
00 19.09 штиль 0 15 км ясно +16.8 +2.2 37 +17 +17 999.1 925.2 +11.7 +26.5
03 19.09 штиль 0 15 км ясно +13.0 +1.8 46 +13 +13 998.1 924.8
06 19.09 штиль 0 15 км ясно +12.0 -1.0 41 +12 +12 997.6 924.8
09 19.09 Ю 7 15 км ясно +11.8 -4.3 32 +9 +9 1006.0 932.6
12 19.09 В 4 15 км ясно +9.7 -4.9 35 +8 +9 1015.9 940.4 +8.6 +16.8
15 19.09 ЮВ 3 15 км ясно +13.6 -10.2 18 +13 +25 опасность
простуды
1016.3 940.9
18 19.09 ЮВ 1 15 км ясно +16.2 -8.9 17 +17 +33 опасность
простуды
1014.4 939.3
21 19.09 ЮВ 1 15 км 1/0
[Ci fib]
+16.2 -10.1 15 +17 +20 1014.0 938.8
00 20.09 штиль 0 15 км ясно +11.1 -7.5 26 +11 +11 1017.1 940.8 +9.7 +17.1
03 20.09 штиль 0 15 км ясно +7.8 -6.2 36 +8 +8 1018.0 941.7
06 20.09 штиль 0 15 км ясно +5.5 -6.3 42 +5 +5 1020.8 944.4
09 20.09 штиль 0 15 км 3/0
[Cs]
+4.7 -6.0 46 +4 +4 1021.1 944.5
12 20.09 ЮЗ 1 15 км ясно +6.8 -7.6 35 +7 +9 1023.2 946.1 +2.6 +11.1
15 20.09 СЗ 7 15 км ясно +17.2 -14.0 11 +16 +21 1021.5 945.4
18 20.09 СВ 9 15 км ясно +20.2 -15.3 8 +19 +20 1018.5 942.8
21 20.09 СВ 7 15 км ясно +20.0 -12.6 10 +19 +20 1017.7 941.8
00 21.09 штиль 0 15 км ясно +11.6 -7.4 26 +12 +12 1020.3 943.6 +6.8 +21.0
03 21.09 штиль 0 15 км ясно +8.2 -7.2 33 +8 +8 1019.6 943.7
06 21.09 штиль 0 15 км ясно +6.8 -5.8 40 +7 +7 1018.8 943.2
09 21.09 ЮЗ 1 15 км ясно +5.2 -10.8 30 +5 +5 1018.8 942.9
12 21.09 ЮВ 1 15 км ясно +9.4 -8.2 28 +10 +12 1021.2 944.6 +3.4 +11.9
15 21.09 В 3 15 км ясно +19.5 -6.5 17 +20 +32 1020.1 944.5
18 21.09 ЮЗ 1 15 км ясно +23.2 -7.5 12 +21 +37 комфорт 1017.7 942.5
21 21.09 ЮВ 1 15 км ясно +23.8 -5.7 14 +22 +25 комфорт 1017.5 942.2
00 22.09 штиль 0 15 км ясно +15.1 -2.1 31 +15 +15 1020.2 944.1 +9.4 +24.5
03 22.09 штиль 0 15 км ясно +13.3 -6.1 25 +13 +13 1020.6 945.6
06 22.09 штиль 0 15 км ясно +10.0 -6.0 32 +10 +10 1020.4 945.4
09 22.09 ЮЗ 3 15 км ясно +8.8 -7.5 31 +7 +7 1020.8 945.7
12 22.09 ЮЗ 3 15 км ясно +9.8 -6.0 32 +9 +11 1023.6 947.4 +7.1 +15.1
15 22.09 В 1 15 км ясно +18.9 -1.6 25 +20 +36 опасность
простуды
1021.8 946.6
18 22.09 В 1 15 км ясно +24.0 -1.4 18 +22 +39 комфорт 1017.4 942.8
21 22.09 СВ 3 15 км ясно +24.0 -6.7 12 +22 +24 комфорт 1015.4 940.8

 

Местоположение метеостанции Сан-Мартин (Аргентина): широта -33.08 долгота -68.41 высота над уровнем моря 653 м.

В архиве по умолчанию представлена погода в Сан-Мартине за последнюю неделю. Архивные данные за месяц целиком и за предыдущие месяцы, начиная с января 2011 года, Вы можете получить, выбрав интересующий диапазон дат из раскрывающегося списка и нажав кнопку "Ввод!".


*Определитесь, кто Вы:
робот инопланетянин человек

Внимание! Время в таблицах - всемирное. Для получения местного времени необходимо прибавить поправку, которая равна -3 ч.

Смотрите также архив погоды в соседних городах и на ближайших метеорологических станциях:

Погода в Мендосе (Аргентина) (44 км)
Погода на Пасо Лос Либертадорес (Чили) (162 км)
Погода в Сан-Рафаэле (Аргентина) (167 км)
Погода в Сан-Хуане (Аргентина) (187 км)
Погода в Сан-Хосе-де-Майпо (Чили) (190 км)
Погода в Сан-Луисе (Аргентина) (193 км)
Погода в Сантьяго Агуас Андинас (Чили) (206 км)
Погода в Сантьяго (Чили) (215 км)
Погода в Ло-Пинто (Чили) (217 км)
Погода в Пудауэле (Чили) (223 км)

Пояснения к столбцам:

Ветер - указаны скорость ветра в м/с - средняя за 10 мин, порывы в срок и между сроками (в фигурных скобках) и направление, откуда дует ветер: С - северный, СВ - северо-восточный, В - восточный, ЮВ - юго-восточный, Ю - южный, ЮЗ - юго-западный, З - западный, СЗ - северо-западный.
Видимость - горизонтальная дальность видимости в метрах или километрах. При видимости от 1 до 10 км при отсутствии осадков обычно наблюдается дымка, при ухудшении видимости до 1 км и менее - туман. В сухую погоду видимость может ухудшаться дымом, пылью или мглою.
Явления - указаны атмосферные явления, наблюдавшиеся в срок или в последний час перед сроком; фигурными скобками обозначены явления, наблюдавшиеся между сроками (за 1-3 часа до срока); квадратными скобками обозначены град или гололедные отложения с указанием их диаметра в мм.
Облачность - указаны через наклонную черту общая и нижняя облачность в баллах и высота нижней границы облаков в метрах; квадратными скобками обозначены формы облаков: Ci - перистые, Cs - перисто-слоистые, Cc - перисто-кучевые, Ac - высококучевые, As - высокослоистые, Sc - слоисто-кучевые, Ns - слоисто-дождевые, Cu - кучевые, Cb - кучево-дождевые. Подробнее классификацию облаков см. в Атласе облаков (PDF).
T - Температура воздуха - температура, измеренная на высоте 2 м над землей.
Td - Температура точки росы - температура, при понижении до которой содержащийся в воздухе водяной пар достигнет насыщения.
f - Относительная влажность воздуха - влажноcть воздуха, измеренная на высоте 2 м над землей.
Te - Эффективная температура - температура, которую ощущает одетый по сезону человек в тени. Характеристика душности погоды. При расчете учитывается влияние влажности воздуха и скорости ветра на теплоощущения человека.
Tes - Эффективная температура на солнце - температура, которую ощущает человек, с поправкой на солнечный нагрев. Характеристика знойности погоды. Зависит от высоты солнца над горизонтом, облачности и скорости ветра. Ночью, в пасмурную погоду, а также при ветре 12 м/с и более поправка равна нулю.
P - Атмосферное давление - приведенное к уровню моря атмосферное давление.
Po - Атмосферное давление - измеренное на уровне метеостанции атмосферное давление.
Tmin - Минимальная температура - минимум температуры воздуха на высоте 2 м над землей.
Tmax - Максимальная температура - максимум температуры воздуха на высоте 2 м над землей.
R - Количество осадков - Количество выпавших осадков за период времени, мм. При наведении курсора мыши на число - период времени, за который выпало указанное количество осадков.
R24 - Количество осадков - Количество выпавших осадков за 24 часа, мм.
S - Снежный покров - Высота снежного покрова, см. При наведении курсора мыши на число - состояние снежного покрова и степень покрытия местности в баллах.